FLOCK 3P-80 (42026 NORAD) Tracking and Keplerian Element Data

This shows tracking and keplerian element data for the satellite.

Feedback or suggestion? Click here.




ElementValue
Catalog42026
NameFLOCK 3P-80
Epoch Orbit25357
Epoch Day262.11100375
Epoch Year2021
RAAN328.9273
Inclination97.3184
Eccentricity0.0008881
Argument of Perigee112.5509
Mean Anonmoly247.6671
Mean Motion15.28425742
Decay Rate2.084E-05
L11 42026U 17008CG 21262.11100375 .00002084 00000-0 77895-4 0 9995
L22 42026 97.3184 328.9273 0008881 112.5509 247.6671 15.28425742253575

Live tracking and technical data element details for FLOCK 3P-80 (NORAD 42026). FLOCK 3P-80 can be tracked NOW for your location showing map with azimuth and elevation plus other details from your city location.

Track the satellite on the map from your city or location and see movement details for azimuth, elevation, latitude, longitude, range, height, and movement on the map or in text.







IsCatalogInMostPopularTable: catalog: 42026, numindb: 586
Update: records affected: 1



GetName: 42026 FLOCK 3P-80

Hit Count: updated at: Sun, 26 Sep 2021 00:46:06 GMT